Date,TemperatureHighF,TemperatureAvgF,TemperatureLowF,DewpointHighF,DewpointAvgF,DewpointLowF,HumidityHigh,HumidityAvg,HumidityLow,PressureMaxIn,PressureMinIn,WindSpeedMaxMPH,WindSpeedAvgMPH,GustSpeedMaxMPH,PrecipitationSumIn
2013-9-1,86,73,63,79,67,54,99,84,66,29.61,29.52,9,2,0,0.43
2013-9-2,80,68,58,68,61,56,97,80,57,29.78,29.60,9,2,0,0.01
2013-9-3,77,62,50,59,55,49,97,78,53,29.88,29.78,6,1,0,0.00
2013-9-4,82,67,52,64,59,51,99,78,52,29.92,29.82,7,1,0,0.00
2013-9-5,76,68,56,66,58,49,96,73,48,30.05,29.90,8,3,0,0.00
2013-9-6,85,70,55,69,60,49,93,72,55,30.01,29.80,8,2,0,0.00
2013-9-7,87,74,63,70,66,62,96,78,52,29.81,29.69,11,2,0,0.09
2013-9-8,79,72,67,69,66,63,92,81,70,29.81,29.73,9,4,0,0.00
2013-9-9,91,79,66,79,72,64,96,80,66,29.76,29.61,10,3,0,0.00
2013-9-10,94,83,72,72,68,64,79,62,40,29.79,29.67,14,6,0,0.00
2013-9-11,88,78,70,72,67,63,85,70,55,29.85,29.77,11,2,0,0.00
2013-9-12,80,69,60,66,60,53,97,73,43,29.88,29.75,10,2,0,0.01
2013-9-13,67,58,49,54,45,41,82,63,41,29.98,29.88,8,4,0,0.13
2013-9-14,71,56,40,52,45,39,96,70,38,29.98,29.82,9,2,0,0.10
2013-9-15,58,56,49,57,52,43,96,87,66,29.94,29.77,6,1,0,1.17
2013-9-16,66,56,46,57,49,43,96,79,57,30.15,29.94,8,4,0,0.00
2013-9-17,70,58,43,56,50,42,97,78,58,30.12,29.90,8,2,0,0.00
2013-9-18,79,67,57,68,60,50,94,80,66,29.90,29.71,9,3,0,0.21
2013-9-19,89,77,69,76,69,62,97,80,56,29.74,29.55,12,4,0,0.04
2013-9-20,74,66,56,68,61,51,96,83,65,29.63,29.54,12,4,0,0.14
2013-9-21,67,57,46,51,48,42,94,74,52,29.74,29.60,9,3,0,0.00
2013-9-22,68,54,42,51,46,41,96,77,49,29.84,29.74,9,2,0,0.00
2013-9-23,69,55,42,52,47,41,97,78,48,29.90,29.81,7,1,0,0.01
2013-9-24,72,57,43,54,49,42,97,76,47,29.84,29.72,11,2,0,0.00
2013-9-25,71,58,48,56,51,47,97,79,53,29.77,29.71,11,2,0,0.00
2013-9-26,78,61,48,58,50,45,98,72,32,29.87,29.75,6,1,0,0.00
2013-9-27,82,63,48,59,51,44,97,69,38,29.95,29.83,9,1,0,0.00
2013-9-28,83,67,49,65,54,43,94,66,43,29.87,29.67,15,4,0,0.30
2013-9-29,68,57,44,60,48,40,96,74,42,29.86,29.72,10,2,0,0.31
2013-9-30,76,57,40,53,46,38,96,71,35,29.80,29.65,9,2,0,0.00